"read_dt","SO2 (ppb)","flags","PMT voltage (V)","lamp voltage (V)","lamp intensity (Hz)","internal temp (C)","react chamber temp (C)","sample flow (l/min)","pres (mmHg)","SO2 bkg (ppb)","SO2 coefficient"
2015-02-14 00:00:00,2013E-3,5C000000,-0724,0839,12135,027.8,045.5,0.449,734.0,01.19,0.508
2015-02-14 00:01:00,2031E-3,5C000000,-0724,0839,12192,027.8,045.5,0.449,734.0,01.19,0.508
2015-02-14 00:02:00,2095E-3,5C000000,-0724,0839,11994,027.8,045.4,0.450,734.0,01.19,0.508
2015-02-14 00:03:00,2062E-3,5C000000,-0724,0839,12148,027.8,045.4,0.449,734.0,01.19,0.508
2015-02-14 00:04:00,2065E-3,5C000000,-0724,0838,12054,027.8,045.4,0.449,734.0,01.19,0.508
2015-02-14 00:05:00,2110E-3,5C000000,-0724,0839,12238,027.8,045.4,0.449,733.9,01.19,0.508
2015-02-14 00:06:00,2103E-3,5C000000,-0724,0839,11983,027.8,045.4,0.449,733.9,01.19,0.508
2015-02-14 00:07:00,1926E-3,5C000000,-0724,0838,12138,027.8,045.4,0.449,734.0,01.19,0.508
2015-02-14 00:08:00,2200E-3,5C000000,-0724,0839,11945,027.8,045.4,0.449,734.0,01.19,0.508
2015-02-14 00:09:00,2145E-3,5C000000,-0724,0839,11981,027.8,045.4,0.449,734.0,01.19,0.508
2015-02-14 00:10:00,2169E-3,5C000000,-0724,0839,12176,027.8,045.5,0.449,734.0,01.19,0.508
2015-02-14 00:11:00,1894E-3,5C000000,-0724,0839,12127,027.9,045.4,0.449,734.1,01.19,0.508
2015-02-14 00:12:00,2049E-3,5C000000,-0724,0839,12099,027.9,045.4,0.449,734.1,01.19,0.508
2015-02-14 00:13:00,2079E-3,5C000000,-0724,0839,12142,027.9,045.4,0.449,734.1,01.19,0.508
2015-02-14 00:14:00,2178E-3,5C000000,-0724,0838,12265,027.8,045.4,0.449,734.1,01.19,0.508
2015-02-14 00:15:00,2118E-3,5C000000,-0724,0839,11949,027.8,045.5,0.449,734.1,01.19,0.508
2015-02-14 00:16:00,1985E-3,5C000000,-0724,0838,12017,027.8,045.4,0.449,734.1,01.19,0.508
2015-02-14 00:17:00,2081E-3,5C000000,-0724,0839,12216,027.8,045.4,0.449,734.1,01.19,0.508
2015-02-14 00:18:00,1951E-3,5C000000,-0724,0839,12129,027.9,045.5,0.449,734.1,01.19,0.508
2015-02-14 00:19:00,1953E-3,5C000000,-0724,0838,12220,027.9,045.5,0.449,734.0,01.19,0.508
2015-02-14 00:20:00,2091E-3,5C000000,-0724,0839,12069,027.8,045.5,0.449,734.1,01.19,0.508
2015-02-14 00:21:00,2200E-3,5C000000,-0724,0838,12179,027.8,045.4,0.449,734.1,01.19,0.508
2015-02-14 00:22:00,2171E-3,5C000000,-0724,0838,12116,027.8,045.5,0.450,734.1,01.19,0.508
2015-02-14 00:23:00,2065E-3,5C000000,-0724,0838,12076,027.8,045.5,0.449,734.1,01.19,0.508
2015-02-14 00:24:00,2141E-3,5C000000,-0724,0839,12115,027.8,045.4,0.449,734.0,01.19,0.508
2015-02-14 00:25:00,2135E-3,5C000000,-0724,0838,12099,027.8,045.4,0.449,734.0,01.19,0.508
2015-02-14 00:26:00,2030E-3,5C000000,-0724,0838,12137,027.8,045.4,0.449,734.1,01.19,0.508
2015-02-14 00:27:00,1899E-3,5C000000,-0724,0838,12166,027.8,045.4,0.449,734.1,01.19,0.508
2015-02-14 00:28:00,2198E-3,5C000000,-0724,0838,12166,027.9,045.4,0.449,734.0,01.19,0.508
2015-02-14 00:29:00,2112E-3,5C000000,-0724,0839,12007,027.8,045.4,0.449,734.1,01.19,0.508
2015-02-14 00:30:00,2158E-3,5C000000,-0724,0838,12016,027.8,045.4,0.449,734.0,01.19,0.508
2015-02-14 00:31:00,1994E-3,5C000000,-0724,0838,11842,027.8,045.4,0.449,734.1,01.19,0.508
2015-02-14 00:32:00,2107E-3,5C000000,-0724,0839,12083,027.9,045.5,0.449,734.1,01.19,0.508
2015-02-14 00:33:00,2014E-3,5C000000,-0724,0839,12124,027.9,045.5,0.449,734.1,01.19,0.508
2015-02-14 00:34:00,2121E-3,5C000000,-0724,0839,12169,027.9,045.4,0.449,734.1,01.19,0.508
2015-02-14 00:35:00,2109E-3,5C000000,-0724,0837,12224,027.9,045.4,0.449,734.1,01.19,0.508
2015-02-14 00:36:00,1912E-3,5C000000,-0724,0837,12134,027.9,045.4,0.449,734.1,01.19,0.508
2015-02-14 00:37:00,2129E-3,5C000000,-0724,0838,12086,027.9,045.4,0.449,734.1,01.19,0.508
2015-02-14 00:38:00,2069E-3,5C000000,-0724,0837,11992,027.8,045.4,0.449,734.1,01.19,0.508
2015-02-14 00:39:00,1959E-3,5C000000,-0724,0840,12327,027.9,045.4,0.449,734.1,01.19,0.508
2015-02-14 00:40:00,2164E-3,5C000000,-0724,0838,12083,027.9,045.4,0.449,734.1,01.19,0.508
2015-02-14 00:41:00,2075E-3,5C000000,-0724,0838,12151,027.9,045.5,0.449,734.0,01.19,0.508
2015-02-14 00:42:00,1926E-3,5C000000,-0724,0838,12096,027.9,045.4,0.449,734.0,01.19,0.508
2015-02-14 00:43:00,2165E-3,5C000000,-0724,0840,12161,027.8,045.4,0.449,734.1,01.19,0.508
2015-02-14 00:44:00,2175E-3,5C000000,-0724,0839,12035,027.9,045.5,0.449,734.1,01.19,0.508
2015-02-14 00:45:00,2045E-3,5C000000,-0724,0838,12114,027.9,045.5,0.449,734.1,01.19,0.508
2015-02-14 00:46:00,2033E-3,5C000000,-0724,0838,11991,027.9,045.5,0.449,734.1,01.19,0.508
2015-02-14 00:47:00,2063E-3,5C000000,-0724,0839,12247,027.9,045.4,0.449,734.1,01.19,0.508
2015-02-14 00:48:00,2136E-3,5C000000,-0724,0839,12119,027.9,045.4,0.449,734.2,01.18,0.508
2015-02-14 00:49:00,2114E-3,5C000000,-0724,0839,11992,027.9,045.4,0.449,734.2,01.18,0.508
2015-02-14 00:50:00,2012E-3,5C000000,-0724,0839,11912,027.9,045.5,0.449,734.2,01.18,0.508
2015-02-14 00:51:00,2101E-3,5C000000,-0724,0838,12281,027.9,045.5,0.449,734.2,01.18,0.508
2015-02-14 00:52:00,2063E-3,5C000000,-0724,0838,12116,027.9,045.4,0.449,734.2,01.18,0.508
2015-02-14 00:53:00,2038E-3,5C000000,-0724,0839,12061,027.9,045.4,0.449,734.2,01.18,0.508
2015-02-14 00:54:00,2139E-3,5C000000,-0724,0838,12172,027.9,045.4,0.449,734.2,01.18,0.508
2015-02-14 00:55:00,2166E-3,5C000000,-0724,0838,12111,027.9,045.4,0.449,734.2,01.18,0.508
2015-02-14 00:56:00,2062E-3,5C000000,-0724,0838,12105,027.9,045.4,0.449,734.2,01.18,0.508
2015-02-14 00:57:00,2127E-3,5C000000,-0724,0839,11928,027.9,045.4,0.449,734.2,01.18,0.508
2015-02-14 00:58:00,2093E-3,5C000000,-0724,0838,12123,027.9,045.4,0.449,734.2,01.18,0.508
2015-02-14 00:59:00,2068E-3,5C000000,-0724,0838,12131,027.9,045.4,0.449,734.1,01.19,0.508
2015-02-14 01:00:00,2072E-3,5C000000,-0724,0839,12050,027.9,045.4,0.449,734.1,01.19,0.508
2015-02-14 01:01:00,2109E-3,5C000000,-0724,0839,12126,027.9,045.5,0.449,734.1,01.19,0.508
2015-02-14 01:02:00,2086E-3,5C000000,-0724,0839,12030,027.9,045.4,0.449,734.1,01.19,0.508
2015-02-14 01:03:00,2071E-3,5C000000,-0724,0840,12191,027.9,045.5,0.449,734.1,01.19,0.508
2015-02-14 01:04:00,2161E-3,5C000000,-0724,0838,12092,027.9,045.5,0.449,734.0,01.19,0.508
2015-02-14 01:05:00,2119E-3,5C000000,-0724,0838,12191,028.0,045.5,0.449,733.9,01.19,0.508
2015-02-14 01:06:00,2081E-3,5C000000,-0724,0838,12139,027.9,045.5,0.449,733.9,01.19,0.508
2015-02-14 01:07:00,2041E-3,5C000000,-0724,0838,12206,027.9,045.4,0.449,733.9,01.19,0.508
2015-02-14 01:08:00,2131E-3,5C000000,-0724,0838,12120,027.9,045.5,0.449,733.8,01.19,0.508
2015-02-14 01:09:00,1988E-3,5C000000,-0724,0839,12177,028.0,045.5,0.449,733.8,01.19,0.508
2015-02-14 01:10:00,2083E-3,5C000000,-0724,0838,11940,028.0,045.5,0.449,733.8,01.19,0.508
2015-02-14 01:11:00,2066E-3,5C000000,-0724,0839,12127,027.9,045.5,0.449,733.8,01.19,0.508
2015-02-14 01:12:00,2013E-3,5C000000,-0724,0838,12109,028.0,045.4,0.449,733.8,01.19,0.508
2015-02-14 01:13:00,2154E-3,5C000000,-0724,0839,12103,027.9,045.4,0.449,733.8,01.19,0.508
2015-02-14 01:14:00,2179E-3,5C000000,-0724,0838,12135,027.9,045.5,0.449,733.8,01.19,0.508
2015-02-14 01:15:00,1975E-3,5C000000,-0724,0839,12039,027.9,045.5,0.449,733.8,01.19,0.508
2015-02-14 01:16:00,2082E-3,5C000000,-0724,0838,12124,027.9,045.5,0.449,733.8,01.19,0.508
2015-02-14 01:17:00,2087E-3,5C000000,-0724,0839,12343,028.0,045.5,0.449,733.8,01.19,0.508
2015-02-14 01:18:00,2093E-3,5C000000,-0724,0839,12170,027.9,045.5,0.449,733.8,01.19,0.508
2015-02-14 01:19:00,1999E-3,5C000000,-0724,0837,12145,027.9,045.5,0.449,733.8,01.19,0.508
2015-02-14 01:20:00,2100E-3,5C000000,-0724,0838,11881,027.9,045.5,0.449,733.8,01.19,0.508
2015-02-14 01:21:00,2024E-3,5C000000,-0724,0838,12074,027.9,045.5,0.449,733.8,01.19,0.508
2015-02-14 01:22:00,2145E-3,5C000000,-0724,0838,12134,027.9,045.5,0.449,733.8,01.19,0.508
2015-02-14 01:23:00,2123E-3,5C000000,-0724,0839,12099,028.0,045.4,0.449,733.7,01.19,0.508
2015-02-14 01:24:00,2050E-3,5C000000,-0724,0838,12270,027.9,045.5,0.449,733.7,01.19,0.508
2015-02-14 01:25:00,2059E-3,5C000000,-0724,0838,12129,027.9,045.5,0.449,733.7,01.19,0.508
2015-02-14 01:26:00,2003E-3,5C000000,-0724,0839,12193,027.9,045.4,0.449,733.8,01.19,0.508
2015-02-14 01:27:00,1999E-3,5C000000,-0724,0838,12020,027.9,045.5,0.449,733.8,01.19,0.508
2015-02-14 01:28:00,2094E-3,5C000000,-0724,0839,12305,027.9,045.4,0.449,733.7,01.19,0.508
2015-02-14 01:29:00,2178E-3,5C000000,-0724,0838,11997,027.9,045.4,0.449,733.7,01.19,0.508
2015-02-14 01:30:00,2107E-3,5C000000,-0724,0840,12168,027.9,045.4,0.449,733.7,01.19,0.508
2015-02-14 01:31:00,2161E-3,5C000000,-0724,0840,12198,027.9,045.4,0.449,733.7,01.19,0.508
2015-02-14 01:32:00,2103E-3,5C000000,-0724,0839,12086,027.9,045.5,0.449,733.7,01.19,0.508
2015-02-14 01:33:00,2124E-3,5C000000,-0724,0838,12095,027.9,045.5,0.449,733.7,01.19,0.508
2015-02-14 01:34:00,2140E-3,5C000000,-0724,0837,11969,027.9,045.4,0.449,733.7,01.19,0.508
2015-02-14 01:35:00,2039E-3,5C000000,-0724,0838,12103,027.9,045.4,0.449,733.7,01.19,0.508
2015-02-14 01:36:00,2089E-3,5C000000,-0724,0839,11966,027.9,045.4,0.449,733.7,01.19,0.508
2015-02-14 01:37:00,2055E-3,5C000000,-0724,0839,12143,027.9,045.4,0.449,733.8,01.19,0.508
2015-02-14 01:38:00,2129E-3,5C000000,-0724,0838,11977,027.9,045.5,0.449,733.7,01.19,0.508
2015-02-14 01:39:00,2067E-3,5C000000,-0724,0839,12076,027.9,045.5,0.449,733.8,01.19,0.508
2015-02-14 01:40:00,2226E-3,5C000000,-0724,0839,12248,027.9,045.4,0.449,733.8,01.19,0.508
2015-02-14 01:41:00,2016E-3,5C000000,-0724,0839,12056,027.9,045.5,0.449,733.8,01.19,0.508
2015-02-14 01:42:00,1942E-3,5C000000,-0724,0839,12167,027.8,045.5,0.449,733.8,01.19,0.508
2015-02-14 01:43:00,2110E-3,5C000000,-0724,0838,11992,027.6,045.4,0.450,733.9,01.19,0.508
2015-02-14 01:44:00,2171E-3,5C000000,-0724,0839,12175,027.5,045.4,0.449,733.9,01.19,0.508
2015-02-14 01:45:00,2024E-3,5C000000,-0724,0838,11948,027.3,045.4,0.449,733.9,01.19,0.508
2015-02-14 01:46:00,1949E-3,5C000000,-0724,0838,12125,027.1,045.4,0.450,733.9,01.19,0.508
2015-02-14 01:47:00,2073E-3,5C000000,-0724,0838,12146,027.0,045.4,0.450,733.9,01.19,0.508
2015-02-14 01:48:00,1955E-3,5C000000,-0724,0837,12214,026.9,045.4,0.450,733.9,01.19,0.508
2015-02-14 01:49:00,2130E-3,5C000000,-0724,0839,12016,026.8,045.4,0.450,733.9,01.19,0.508
2015-02-14 01:50:00,2070E-3,5C000000,-0724,0837,11955,026.7,045.4,0.450,733.9,01.19,0.508
2015-02-14 01:51:00,2019E-3,5C000000,-0724,0838,12261,026.6,045.4,0.450,733.9,01.19,0.508
2015-02-14 01:52:00,2104E-3,5C000000,-0724,0838,12148,026.6,045.4,0.451,733.9,01.19,0.508
2015-02-14 01:53:00,2005E-3,5C000000,-0724,0837,12175,026.5,045.4,0.451,733.8,01.19,0.508
2015-02-14 01:54:00,2064E-3,5C000000,-0724,0838,12080,026.5,045.4,0.450,733.8,01.19,0.508
2015-02-14 01:55:00,2029E-3,5C000000,-0724,0838,12008,026.6,045.4,0.451,733.7,01.19,0.508
2015-02-14 01:56:00,1995E-3,5C000000,-0724,0837,12178,026.7,045.4,0.451,733.7,01.19,0.508
2015-02-14 01:57:00,2118E-3,5C000000,-0724,0838,12140,026.8,045.4,0.450,733.7,01.19,0.508
2015-02-14 01:58:00,2066E-3,5C000000,-0724,0838,12071,027.0,045.4,0.451,733.7,01.19,0.508
2015-02-14 01:59:00,1949E-3,5C000000,-0724,0838,12037,027.1,045.4,0.450,733.7,01.19,0.508
2015-02-14 02:00:00,2141E-3,5C000000,-0724,0839,12170,027.3,045.4,0.451,733.6,01.19,0.508
2015-02-14 02:01:00,2003E-3,5C000000,-0724,0838,12025,027.4,045.5,0.450,733.6,01.19,0.508
2015-02-14 02:02:00,2093E-3,5C000000,-0724,0838,12138,027.5,045.4,0.450,733.6,01.19,0.508
2015-02-14 02:03:00,2000E-3,5C000000,-0724,0838,12131,027.6,045.4,0.450,733.5,01.19,0.508
2015-02-14 02:04:00,2112E-3,5C000000,-0724,0839,11973,027.7,045.4,0.450,733.6,01.19,0.508
2015-02-14 02:05:00,1978E-3,5C000000,-0724,0839,12144,027.7,045.4,0.450,733.5,01.19,0.508
2015-02-14 02:06:00,2141E-3,5C000000,-0724,0839,12064,027.8,045.4,0.450,733.5,01.19,0.508
2015-02-14 02:07:00,2010E-3,5C000000,-0724,0839,12162,027.8,045.4,0.449,733.6,01.19,0.508
2015-02-14 02:08:00,2033E-3,5C000000,-0724,0838,12048,027.8,045.4,0.450,733.5,01.19,0.508
2015-02-14 02:09:00,1964E-3,5C000000,-0724,0838,12136,027.8,045.4,0.449,733.5,01.19,0.508
2015-02-14 02:10:00,1950E-3,5C000000,-0724,0839,12197,027.8,045.4,0.450,733.5,01.19,0.508
2015-02-14 02:11:00,1956E-3,5C000000,-0724,0838,12170,027.8,045.4,0.449,733.5,01.19,0.508
2015-02-14 02:12:00,2023E-3,5C000000,-0724,0838,12068,027.8,045.4,0.449,733.5,01.19,0.508
2015-02-14 02:13:00,1938E-3,5C000000,-0724,0838,11976,027.8,045.5,0.449,733.5,01.19,0.508
2015-02-14 02:14:00,2150E-3,5C000000,-0724,0839,12037,027.8,045.5,0.449,733.5,01.19,0.508
2015-02-14 02:15:00,1937E-3,5C000000,-0724,0839,12116,027.8,045.4,0.449,733.5,01.19,0.508
2015-02-14 02:16:00,2187E-3,5C000000,-0724,0838,12109,027.7,045.4,0.450,733.5,01.19,0.508
2015-02-14 02:17:00,2126E-3,5C000000,-0724,0838,12210,027.6,045.4,0.449,733.5,01.19,0.508
2015-02-14 02:18:00,2004E-3,5C000000,-0724,0838,12036,027.5,045.4,0.450,733.5,01.19,0.508
2015-02-14 02:19:00,1940E-3,5C000000,-0724,0838,12138,027.3,045.4,0.450,733.5,01.19,0.508
2015-02-14 02:20:00,2048E-3,5C000000,-0724,0838,12117,027.1,045.4,0.450,733.5,01.19,0.508
2015-02-14 02:21:00,2011E-3,5C000000,-0724,0837,12165,027.0,045.4,0.450,733.5,01.19,0.508
2015-02-14 02:22:00,2102E-3,5C000000,-0724,0839,12326,026.8,045.4,0.450,733.5,01.19,0.508
2015-02-14 02:23:00,2009E-3,5C000000,-0724,0837,12175,026.7,045.4,0.450,733.5,01.19,0.508
2015-02-14 02:24:00,2102E-3,5C000000,-0724,0839,12266,026.7,045.4,0.450,733.5,01.19,0.508
2015-02-14 02:25:00,2073E-3,5C000000,-0724,0837,12081,026.6,045.4,0.450,733.5,01.19,0.508
2015-02-14 02:26:00,1924E-3,5C000000,-0724,0837,12237,026.5,045.4,0.451,733.5,01.19,0.508
2015-02-14 02:27:00,2043E-3,5C000000,-0724,0837,12243,026.5,045.4,0.451,733.5,01.19,0.508
2015-02-14 02:28:00,2145E-3,5C000000,-0724,0837,12196,026.5,045.4,0.450,733.4,01.19,0.508
2015-02-14 02:29:00,1954E-3,5C000000,-0724,0837,12028,026.6,045.4,0.451,733.4,01.19,0.508
2015-02-14 02:30:00,2054E-3,5C000000,-0724,0838,12094,026.7,045.4,0.450,733.4,01.19,0.508
2015-02-14 02:31:00,1961E-3,5C000000,-0724,0837,12042,026.8,045.4,0.451,733.3,01.19,0.508
2015-02-14 02:32:00,2058E-3,5C000000,-0724,0838,12120,026.9,045.4,0.450,733.4,01.19,0.508
2015-02-14 02:33:00,2002E-3,5C000000,-0724,0838,12140,027.1,045.4,0.451,733.3,01.19,0.508
2015-02-14 02:34:00,2136E-3,5C000000,-0724,0838,12166,027.2,045.4,0.450,733.3,01.19,0.508
2015-02-14 02:35:00,2067E-3,5C000000,-0724,0839,12187,027.4,045.4,0.450,733.3,01.19,0.508
2015-02-14 02:36:00,2070E-3,5C000000,-0724,0838,12296,027.5,045.5,0.450,733.3,01.19,0.508
2015-02-14 02:37:00,2102E-3,5C000000,-0724,0838,12030,027.6,045.4,0.450,733.3,01.19,0.508
2015-02-14 02:38:00,1967E-3,5C000000,-0724,0839,12141,027.7,045.4,0.450,733.3,01.19,0.508
2015-02-14 02:39:00,1985E-3,5C000000,-0724,0838,12182,027.7,045.5,0.450,733.3,01.19,0.508
2015-02-14 02:40:00,2014E-3,5C000000,-0724,0838,11952,027.7,045.4,0.449,733.2,01.19,0.508
2015-02-14 02:41:00,1964E-3,5C000000,-0724,0839,12194,027.8,045.4,0.450,733.3,01.19,0.508
2015-02-14 02:42:00,1964E-3,5C000000,-0724,0839,12138,027.8,045.4,0.449,733.2,01.19,0.508
2015-02-14 02:43:00,1916E-3,5C000000,-0724,0839,11927,027.8,045.5,0.450,733.2,01.19,0.508
2015-02-14 02:44:00,2017E-3,5C000000,-0724,0839,12175,027.8,045.4,0.449,733.2,01.19,0.508
2015-02-14 02:45:00,1970E-3,5C000000,-0724,0839,12205,027.8,045.4,0.449,733.2,01.19,0.508
2015-02-14 02:46:00,1911E-3,5C000000,-0724,0839,12200,027.8,045.4,0.449,733.3,01.19,0.508
2015-02-14 02:47:00,2162E-3,5C000000,-0724,0839,11929,027.8,045.4,0.449,733.3,01.19,0.508
2015-02-14 02:48:00,2168E-3,5C000000,-0724,0838,12177,027.7,045.4,0.449,733.3,01.19,0.508
2015-02-14 02:49:00,1903E-3,5C000000,-0724,0839,12020,027.7,045.4,0.449,733.3,01.19,0.508
2015-02-14 02:50:00,1975E-3,5C000000,-0724,0838,12187,027.6,045.4,0.449,733.3,01.19,0.508
2015-02-14 02:51:00,1928E-3,5C000000,-0724,0838,12167,027.4,045.4,0.450,733.3,01.19,0.508
2015-02-14 02:52:00,2039E-3,5C000000,-0724,0838,12067,027.2,045.4,0.450,733.4,01.19,0.508
2015-02-14 02:53:00,2043E-3,5C000000,-0724,0837,12203,027.1,045.4,0.450,733.4,01.19,0.508
2015-02-14 02:54:00,1896E-3,5C000000,-0724,0837,12088,027.0,045.4,0.450,733.3,01.19,0.508
2015-02-14 02:55:00,2043E-3,5C000000,-0724,0837,12247,026.8,045.4,0.450,733.4,01.19,0.508
2015-02-14 02:56:00,2029E-3,5C000000,-0724,0838,12104,026.7,045.4,0.450,733.4,01.19,0.508
2015-02-14 02:57:00,2050E-3,5C000000,-0724,0837,12074,026.7,045.4,0.450,733.4,01.19,0.508
2015-02-14 02:58:00,2072E-3,5C000000,-0724,0838,12019,026.6,045.4,0.450,733.4,01.19,0.508
2015-02-14 02:59:00,2083E-3,5C000000,-0724,0837,12076,026.6,045.4,0.450,733.4,01.19,0.508
2015-02-14 03:00:00,2077E-3,5C000000,-0724,0838,12022,026.5,045.4,0.451,733.5,01.19,0.508
2015-02-14 03:01:00,2003E-3,5C000000,-0724,0837,12147,026.6,045.4,0.450,733.4,01.19,0.508
2015-02-14 03:02:00,1937E-3,5C000000,-0724,0838,12231,026.7,045.4,0.450,733.4,01.19,0.508
2015-02-14 03:03:00,1888E-3,5C000000,-0724,0838,11958,026.8,045.4,0.451,733.3,01.19,0.508
2015-02-14 03:04:00,1914E-3,5C000000,-0724,0838,11995,027.0,045.4,0.450,733.4,01.19,0.508
2015-02-14 03:05:00,1916E-3,5C000000,-0724,0838,12244,027.1,045.4,0.450,733.4,01.19,0.508
2015-02-14 03:06:00,1970E-3,5C000000,-0724,0837,12127,027.2,045.4,0.450,733.3,01.19,0.508
2015-02-14 03:07:00,2079E-3,5C000000,-0724,0839,12229,027.3,045.4,0.450,733.3,01.19,0.508
2015-02-14 03:08:00,1983E-3,5C000000,-0724,0837,12211,027.5,045.4,0.450,733.3,01.19,0.508
2015-02-14 03:09:00,2085E-3,5C000000,-0724,0839,12175,027.6,045.4,0.450,733.4,01.19,0.508
2015-02-14 03:10:00,2077E-3,5C000000,-0724,0838,11820,027.6,045.4,0.450,733.4,01.19,0.508
2015-02-14 03:11:00,1990E-3,5C000000,-0724,0839,11828,027.6,045.4,0.450,733.4,01.19,0.508
2015-02-14 03:12:00,1962E-3,5C000000,-0724,0838,12222,027.6,045.5,0.450,733.4,01.19,0.508
2015-02-14 03:13:00,2105E-3,5C000000,-0724,0838,12082,027.7,045.4,0.450,733.4,01.19,0.508
2015-02-14 03:14:00,2062E-3,5C000000,-0724,0838,12058,027.7,045.4,0.449,733.4,01.19,0.508
2015-02-14 03:15:00,2016E-3,5C000000,-0724,0837,12083,027.7,045.4,0.449,733.4,01.19,0.508
2015-02-14 03:16:00,2006E-3,5C000000,-0724,0837,12073,027.7,045.4,0.449,733.4,01.19,0.508
2015-02-14 03:17:00,2138E-3,5C000000,-0724,0838,12108,027.7,045.4,0.450,733.3,01.19,0.508
2015-02-14 03:18:00,2022E-3,5C000000,-0724,0839,12019,027.8,045.4,0.449,733.3,01.19,0.508
2015-02-14 03:19:00,2033E-3,5C000000,-0724,0839,11979,027.8,045.4,0.449,733.3,01.19,0.508
2015-02-14 03:20:00,2033E-3,5C000000,-0724,0838,12123,027.8,045.5,0.449,733.3,01.19,0.508
2015-02-14 03:21:00,2058E-3,5C000000,-0724,0838,12121,027.8,045.4,0.449,733.3,01.19,0.508
2015-02-14 03:22:00,2007E-3,5C000000,-0724,0839,11887,027.8,045.4,0.449,733.3,01.19,0.508
2015-02-14 03:23:00,2058E-3,5C000000,-0724,0838,12105,027.9,045.4,0.449,733.3,01.19,0.508
2015-02-14 03:24:00,1993E-3,5C000000,-0724,0838,12081,027.8,045.5,0.449,733.3,01.19,0.508
2015-02-14 03:25:00,2009E-3,5C000000,-0724,0838,12140,027.8,045.4,0.449,733.3,01.19,0.508
2015-02-14 03:26:00,1996E-3,5C000000,-0724,0838,12045,027.8,045.4,0.449,733.4,01.19,0.508
2015-02-14 03:27:00,2142E-3,5C000000,-0724,0839,12083,027.7,045.4,0.449,733.4,01.19,0.508
2015-02-14 03:28:00,2037E-3,5C000000,-0724,0838,12253,027.6,045.4,0.449,733.4,01.19,0.508
2015-02-14 03:29:00,1970E-3,5C000000,-0724,0838,12185,027.4,045.4,0.449,733.4,01.19,0.508
2015-02-14 03:30:00,2009E-3,5C000000,-0724,0838,12075,027.2,045.4,0.450,733.4,01.19,0.508
2015-02-14 03:31:00,2057E-3,5C000000,-0724,0838,12087,027.1,045.4,0.450,733.4,01.19,0.508
2015-02-14 03:32:00,2024E-3,5C000000,-0724,0838,12180,027.0,045.4,0.450,733.4,01.19,0.508
2015-02-14 03:33:00,2039E-3,5C000000,-0724,0838,12172,026.9,045.4,0.450,733.4,01.19,0.508
2015-02-14 03:34:00,2191E-3,5C000000,-0724,0837,11940,026.8,045.4,0.450,733.4,01.19,0.508
2015-02-14 03:35:00,1963E-3,5C000000,-0724,0838,12120,026.7,045.4,0.450,733.4,01.19,0.508
2015-02-14 03:36:00,1892E-3,5C000000,-0724,0837,12116,026.6,045.4,0.450,733.5,01.19,0.508
2015-02-14 03:37:00,2006E-3,5C000000,-0724,0837,12045,026.6,045.4,0.450,733.4,01.19,0.508
2015-02-14 03:38:00,1945E-3,5C000000,-0724,0837,12024,026.6,045.4,0.451,733.4,01.19,0.508
2015-02-14 03:39:00,2057E-3,5C000000,-0724,0838,12182,026.5,045.4,0.450,733.4,01.19,0.508
2015-02-14 03:40:00,1993E-3,5C000000,-0724,0838,12042,026.5,045.4,0.451,733.4,01.19,0.508
2015-02-14 03:41:00,1906E-3,5C000000,-0724,0837,12305,026.5,045.4,0.451,733.4,01.19,0.508
2015-02-14 03:42:00,1967E-3,5C000000,-0724,0839,12141,026.5,045.4,0.451,733.4,01.19,0.508
2015-02-14 03:43:00,2236E-3,5C000000,-0724,0838,12168,026.4,045.4,0.451,733.4,01.19,0.508
2015-02-14 03:44:00,2041E-3,5C000000,-0724,0837,12263,026.4,045.4,0.451,733.4,01.19,0.508
2015-02-14 03:45:00,1897E-3,5C000000,-0724,0837,12038,026.4,045.4,0.451,733.4,01.19,0.508
2015-02-14 03:46:00,1842E-3,5C000000,-0724,0836,12233,026.3,045.4,0.451,733.4,01.19,0.508
2015-02-14 03:47:00,1878E-3,5C000000,-0724,0838,12015,026.3,045.4,0.451,733.4,01.19,0.508
2015-02-14 03:48:00,1962E-3,5C000000,-0724,0838,11893,026.3,045.4,0.451,733.4,01.19,0.508
2015-02-14 03:49:00,1947E-3,5C000000,-0724,0838,12039,026.3,045.4,0.451,733.3,01.19,0.508
2015-02-14 03:50:00,2048E-3,5C000000,-0724,0838,12262,026.3,045.4,0.451,733.3,01.19,0.508
2015-02-14 03:51:00,1896E-3,5C000000,-0724,0838,12145,026.2,045.4,0.451,733.3,01.19,0.508
2015-02-14 03:52:00,1943E-3,5C000000,-0724,0838,12171,026.2,045.4,0.451,733.3,01.19,0.508
2015-02-14 03:53:00,2059E-3,5C000000,-0724,0837,12067,026.2,045.4,0.451,733.3,01.19,0.508
2015-02-14 03:54:00,2025E-3,5C000000,-0724,0837,12207,026.2,045.4,0.451,733.3,01.19,0.508
2015-02-14 03:55:00,2107E-3,5C000000,-0724,0838,12053,026.2,045.4,0.451,733.3,01.19,0.508
2015-02-14 03:56:00,2003E-3,5C000000,-0724,0838,11994,026.2,045.4,0.451,733.2,01.19,0.508
2015-02-14 03:57:00,1985E-3,5C000000,-0724,0838,12024,026.1,045.4,0.451,733.2,01.19,0.508
2015-02-14 03:58:00,2044E-3,5C000000,-0724,0838,12163,026.1,045.4,0.451,733.2,01.19,0.508
2015-02-14 03:59:00,1961E-3,5C000000,-0724,0838,12167,026.1,045.4,0.451,733.2,01.19,0.508
2015-02-14 04:00:00,2002E-3,5C000000,-0724,0838,12246,026.1,045.4,0.451,733.2,01.19,0.508
2015-02-14 04:01:00,1955E-3,5C000000,-0724,0838,12030,026.1,045.4,0.451,733.2,01.19,0.508
2015-02-14 04:02:00,1854E-3,5C000000,-0724,0838,12101,026.1,045.4,0.451,733.2,01.19,0.508
2015-02-14 04:03:00,2023E-3,5C000000,-0724,0838,12158,026.1,045.4,0.451,733.2,01.19,0.508
2015-02-14 04:04:00,1990E-3,5C000000,-0724,0837,12155,026.1,045.4,0.451,733.2,01.19,0.508
2015-02-14 04:05:00,1939E-3,5C000000,-0724,0838,12301,026.2,045.4,0.451,733.1,01.19,0.508
2015-02-14 04:06:00,2006E-3,5C000000,-0724,0838,12142,026.3,045.4,0.451,733.1,01.19,0.508
2015-02-14 04:07:00,2029E-3,5C000000,-0724,0838,12220,026.5,045.4,0.451,733.1,01.19,0.508
2015-02-14 04:08:00,1967E-3,5C000000,-0724,0837,12107,026.6,045.4,0.451,733.1,01.19,0.508
2015-02-14 04:09:00,1983E-3,5C000000,-0724,0838,12158,026.8,045.4,0.451,733.0,01.19,0.508
2015-02-14 04:10:00,2030E-3,5C000000,-0724,0838,12053,027.0,045.4,0.451,733.0,01.19,0.508
2015-02-14 04:11:00,1872E-3,5C000000,-0724,0838,12180,027.1,045.4,0.450,732.9,01.19,0.508
2015-02-14 04:12:00,2007E-3,5C000000,-0724,0839,12131,027.2,045.4,0.450,732.9,01.19,0.508
2015-02-14 04:13:00,1982E-3,5C000000,-0724,0838,12177,027.3,045.4,0.450,732.9,01.19,0.508
2015-02-14 04:14:00,2021E-3,5C000000,-0724,0838,12048,027.4,045.4,0.450,732.9,01.19,0.508
2015-02-14 04:15:00,2026E-3,5C000000,-0724,0837,12094,027.4,045.4,0.450,732.9,01.19,0.508
2015-02-14 04:16:00,2073E-3,5C000000,-0724,0838,12077,027.5,045.4,0.450,732.9,01.19,0.508
2015-02-14 04:17:00,1989E-3,5C000000,-0724,0838,12145,027.5,045.4,0.450,732.9,01.19,0.508
2015-02-14 04:18:00,1933E-3,5C000000,-0724,0838,11992,027.5,045.4,0.449,732.9,01.19,0.508
2015-02-14 04:19:00,1991E-3,5C000000,-0724,0838,12153,027.6,045.4,0.450,732.9,01.19,0.508
2015-02-14 04:20:00,1869E-3,5C000000,-0724,0838,12154,027.6,045.4,0.450,732.9,01.19,0.508